Retour au catalogue

CZ-4C Y49 STAGE 3

ActifLEO
NORAD 56158·ROCKET BODY·🇨🇳 China
Ce nom de satellite n'a pas encore été confirmé par des sources officielles.

Lancé Mar 31, 2023 depuis Jiuquan Satellite Launch Center

Loading…

Prochains Passages (prochaines 24 heures)

TLE

FraisSource: Space-Track

Époque: Sep 14, 2026, 14:58 UTC

1 56158U 23048B   26257.62378963 -.00000072  00000-0  23276-4 0  9992
2 56158  63.4032  95.6946 0227944  24.5022 336.6647 13.68548051172889

Suivez CZ-4C Y49 STAGE 3 en temps réel avec AllMySat

Download on the App Store